sat.trackr.live / text

‹ back to catalog

STARLINK-5269

NORAD 54161 · 2022-141E

PAYLOAD ACTIVE UNKNOWN

§ Identity

Operator
Country
US
Launch date
2022-10-28
Launch site
AFWTR
Launch vehicle
Mass (kg)
RCS (m²)

Purposes: comms

External: N2YO · Heavens-Above · Gunter

§ Orbital elements

Epoch: 2026-05-24T23:37:14.576736Z

Period
95.44 min
Inclination
53.2131°
Eccentricity
0.0001557
Mean motion
15.08856573 rev/d
Perigee alt
538.6 km
Apogee alt
540.8 km
Semi-major
6,917.8 km
B*
-2.1018e-4
RAAN
31.7248°
Arg perigee
98.4833°
Mean anomaly
261.6336°
Rev number
19,723

§ Raw data

STARLINK-52691 54161U 22141E   26144.98419649 -.00003633  00000+0 -21018-3 0  99952 54161  53.2131  31.7248 0001557  98.4833 261.6336 15.08856573197239

JSON: /api/v1/satellites/54161 · /tle

For live sub-satellite position, see the globe view (requires WebGL).

§ Visibility from observer

Set your observer location to see the next 7 days of passes ≥ 10°. The values pass through the URL so the page stays shareable.

No JS? Fill the form by hand. The geolocation button needs JavaScript.